TimeCDT,TemperatureF,Dew PointF,Humidity,Sea Level PressureIn,VisibilityMPH,Wind Direction,Wind SpeedMPH,Gust SpeedMPH,PrecipitationIn,Events,Conditions,WindDirDegrees,DateUTC
12:54 AM,78.8,64.4,61,30.04,10.0,Calm,Calm,-,N/A,,Partly Cloudy,0,2013-08-29 05:54:00
1:54 AM,77.0,64.9,66,30.03,10.0,Calm,Calm,-,N/A,,Clear,0,2013-08-29 06:54:00
2:54 AM,75.9,64.9,69,30.03,10.0,Calm,Calm,-,N/A,,Clear,0,2013-08-29 07:54:00
3:54 AM,75.0,64.9,71,30.02,10.0,Calm,Calm,-,N/A,,Clear,0,2013-08-29 08:54:00
4:54 AM,75.0,64.9,71,30.02,10.0,Calm,Calm,-,N/A,,Clear,0,2013-08-29 09:54:00
5:54 AM,73.9,66.0,76,30.04,10.0,Calm,Calm,-,N/A,,Partly Cloudy,0,2013-08-29 10:54:00
6:54 AM,73.0,66.0,79,30.06,10.0,Calm,Calm,-,N/A,,Scattered Clouds,0,2013-08-29 11:54:00
7:54 AM,77.0,66.9,71,30.07,10.0,WSW,3.5,-,N/A,,Mostly Cloudy,240,2013-08-29 12:54:00
8:54 AM,82.9,66.0,56,30.07,10.0,West,3.5,-,N/A,,Scattered Clouds,270,2013-08-29 13:54:00
9:54 AM,86.0,66.0,51,30.08,10.0,Variable,5.8,-,N/A,,Partly Cloudy,0,2013-08-29 14:54:00
10:54 AM,89.1,66.0,46,30.08,10.0,Variable,6.9,-,N/A,,Partly Cloudy,0,2013-08-29 15:54:00
11:54 AM,91.0,66.0,44,30.06,10.0,Variable,6.9,-,N/A,,Partly Cloudy,0,2013-08-29 16:54:00
12:54 PM,93.0,66.0,41,30.04,10.0,WNW,9.2,17.3,N/A,,Partly Cloudy,290,2013-08-29 17:54:00
1:54 PM,93.0,68.0,44,30.02,10.0,West,10.4,-,N/A,,Scattered Clouds,280,2013-08-29 18:54:00
2:54 PM,91.0,66.9,45,30.00,10.0,WNW,4.6,-,N/A,,Scattered Clouds,300,2013-08-29 19:54:00
3:54 PM,93.0,69.1,45,29.99,10.0,WSW,5.8,-,N/A,,Partly Cloudy,250,2013-08-29 20:54:00
4:54 PM,93.9,69.1,44,29.98,10.0,WNW,8.1,-,N/A,,Scattered Clouds,290,2013-08-29 21:54:00
5:54 PM,93.0,68.0,44,29.98,10.0,WNW,4.6,-,N/A,,Partly Cloudy,290,2013-08-29 22:54:00
6:54 PM,90.0,69.1,50,29.98,10.0,WNW,5.8,-,N/A,,Partly Cloudy,290,2013-08-29 23:54:00
7:54 PM,87.1,69.1,55,29.99,10.0,NW,3.5,-,N/A,,Partly Cloudy,310,2013-08-30 00:54:00
8:54 PM,87.1,70.0,57,29.99,10.0,Calm,Calm,-,N/A,,Scattered Clouds,0,2013-08-30 01:54:00
9:54 PM,84.9,70.0,61,29.99,10.0,Calm,Calm,-,N/A,,Partly Cloudy,0,2013-08-30 02:54:00
10:54 PM,84.0,71.1,65,29.99,10.0,Calm,Calm,-,N/A,,Clear,0,2013-08-30 03:54:00
11:54 PM,82.0,71.1,69,29.98,10.0,Calm,Calm,-,N/A,,Partly Cloudy,0,2013-08-30 04:54:00